Location: Noordwijk
(52.2400°N, 4.4500°E)
Time: 07:27:16
(UTC+00:00)

CAS-4A - Visible Passes

Search period start: 06 December 2022 00:00
Search period end: 16 December 2022 00:00
Orbit: 517 x 534 km, 43.0° (Epoch: 05 December)

Date Brightness Start Highest point End Pass type
(mag) Time Alt. Az. Time Alt. Az. Time Alt. Az.
06 Dec ? 05:30:58 10° S 05:33:05 14° SSE 05:35:12 10° SE visible
07 Dec ? 05:16:41 10° SSW 05:19:03 15° SSE 05:21:25 10° SE visible
07 Dec ? 06:54:55 10° SW 06:58:07 22° S 07:01:19 10° SE visible
08 Dec ? 05:03:13 13° SSW 05:05:01 16° SSE 05:07:35 10° ESE visible
08 Dec ? 06:40:54 10° SW 06:44:05 22° S 06:47:18 10° SE visible
09 Dec ? 04:50:13 17° S 04:50:59 17° SSE 04:53:42 10° ESE visible
09 Dec ? 06:26:53 10° SW 06:30:04 22° S 06:33:17 10° SE visible
10 Dec ? 04:37:07 18° SSE 04:37:07 18° SSE 04:39:47 10° ESE visible
10 Dec ? 06:12:53 10° SW 06:16:03 22° S 06:19:13 10° SE visible
11 Dec ? 04:23:57 18° SSE 04:23:57 18° SSE 04:25:51 10° ESE visible
11 Dec ? 05:59:04 11° SW 06:02:00 21° S 06:05:08 10° SE visible
12 Dec ? 04:10:44 15° SE 04:10:44 15° SE 04:11:52 10° ESE visible
12 Dec ? 05:45:51 14° SW 05:47:58 21° S 05:51:02 10° SE visible
13 Dec ? 03:57:29 12° SE 03:57:29 12° SE 03:57:52 10° ESE visible
13 Dec ? 05:32:36 17° SW 05:33:55 20° S 05:36:54 10° SE visible
14 Dec ? 05:19:19 19° SSW 05:19:50 19° SSW 05:22:44 10° SSE visible
15 Dec ? 05:06:03 18° S 05:06:03 18° S 05:08:32 10° SSE visible
